Regional Weather Roundup
Issued by NWS

Home | Current Version | Previous Version | Text Only | Print | Product List | Glossary Off
Versions: 1 2 3 4 5 6 7 8 9 10 11 12 13 14 15 16 17 18 19 20 21 22 23 24 25 26 27 28 29 30 31 32 33 34 35 36 37 38 39 40 41 42 43 44 45 46 47 48 49 50

000
ASUS43 KLSX 242159
RWRMO

WEATHER SUMMARY FOR MISSOURI
NATIONAL WEATHER SERVICE SPRINGFIELD MO
500 PM CDT FRI APR 24 2015

NOTE: "FAIR" INDICATES FEW OR NO CLOUDS BELOW 12,000 FEET WITH NO
       SIGNIFICANT WEATHER AND/OR OBSTRUCTIONS TO VISIBILITY.
       CURRENT SKY AND/OR WEATHER CONDITIONS ARE NOT AVAILABLE FOR
       CHILLICOTHE AND FARMINGTON.

MOZ001>031-035>038-043-044-053-054-242300-
...NORTHERN AND WESTERN MISSOURI...

CITY           SKY/WX    TMP DP  RH WIND       PRES   REMARKS
KANSAS CTY INT CLOUDY    62  54  74 S14G20    29.66F
KANSAS C DTWN  CLOUDY    64  55  72 S8        29.66F
LEE`S SUMMIT   CLOUDY    62  53  72 SE8       29.68F
ST JOSEPH      CLOUDY    60  52  74 S12       29.66F
CHILLICOTHE      N/A     59  53  80 S9G18     29.70F
KIRKSVILLE     CLOUDY    63  50  62 S7        29.71F

$$
MOZ066>068-077>081-088>096-101>105-242300-
...SOUTHWEST MISSOURI...

CITY           SKY/WX    TMP DP  RH WIND       PRES   REMARKS
SPRINGFIELD    CLOUDY    57  50  77 SE20G29   29.73F
JOPLIN         CLOUDY    66  55  67 S16       29.70F

$$
MOZ032>034-039>042-045>050-055>058-069>072-242300-
...CENTRAL MISSOURI...

CITY           SKY/WX    TMP DP  RH WIND       PRES   REMARKS
COLUMBIA       CLOUDY    62  49  62 S16G23    29.75F
JEFFERSON CITY CLOUDY    63  48  58 SE13G24   29.75F
ROLLA          CLOUDY    57  48  72 S17G24    29.77F
SEDALIA        CLOUDY    63  52  67 S13       29.72F
OSAGE BEACH    CLOUDY    61  46  59 SE15G21   29.75F

$$
MOZ051-052-059>065-242300-
...EAST CENTRAL MISSOURI...

CITY           SKY/WX    TMP DP  RH WIND       PRES   REMARKS
ST LOUIS INTL  CLOUDY    65  37  35 S23G29    29.83F
SPIRIT OF STL  CLOUDY    62  39  42 S12G23    29.82F
ST CHARLES     CLOUDY    64  39  39 S21G28    29.81F

$$
MOZ072>076-082>087-097>100-106>115-242300-
...SOUTH CENTRAL AND SOUTHEAST MISSOURI...

CITY           SKY/WX    TMP DP  RH WIND       PRES   REMARKS
CAPE GIRARDEAU CLOUDY    53  49  86 E7        29.91F
FARMINGTON     CLOUDY    54  43  66 S15G21    29.93R
POPLAR BLUFF   CLOUDY    55  46  71 SE10      29.89F
WEST PLAINS    CLOUDY    53  47  79 SE12      29.87F

$$



USA.gov is the U.S. government's official web portal to all federal, state and local government web resources and services.